Date,TemperatureHighF,TemperatureAvgF,TemperatureLowF,DewpointHighF,DewpointAvgF,DewpointLowF,HumidityHigh,HumidityAvg,HumidityLow,PressureMaxIn,PressureMinIn,WindSpeedMaxMPH,WindSpeedAvgMPH,GustSpeedMaxMPH,PrecipitationSumIn
2013-6-1,91,82,76,79,76,74,97,82,62,29.91,29.80,4,1,9,0.01
2013-6-2,85,78,74,76,74,72,97,88,68,29.96,29.80,8,1,15,0.05
2013-6-3,91,81,71,76,73,70,98,79,53,29.92,29.76,6,1,12,0.05
2013-6-4,95,84,72,76,73,70,96,73,48,29.89,29.73,5,1,9,0.00
2013-6-5,95,84,74,78,75,73,97,78,53,29.87,29.70,5,1,10,0.00
2013-6-6,90,77,70,78,74,69,98,90,61,29.85,29.69,7,1,16,1.52
2013-6-7,86,76,70,73,70,69,98,85,60,29.88,29.76,5,1,10,0.37
2013-6-8,91,76,69,74,71,68,98,86,53,29.93,29.80,6,1,14,0.00
2013-6-9,92,77,70,78,72,69,98,85,58,29.96,29.79,5,1,9,0.00
2013-6-10,92,81,71,77,74,70,98,82,60,29.97,29.89,3,1,7,0.00
2013-6-11,94,84,74,79,75,71,98,79,48,30.05,29.90,2,0,7,0.00
2013-6-12,94,83,74,78,75,73,98,81,55,30.07,29.93,3,0,10,0.00
2013-6-13,94,84,74,78,75,73,98,77,53,30.03,29.82,5,1,10,0.00
2013-6-14,97,84,77,83,78,75,97,83,54,29.92,29.76,6,1,12,0.35
2013-6-15,95,83,73,80,76,71,92,79,55,29.97,29.82,3,0,8,0.22
2013-6-16,93,85,77,79,76,74,96,78,57,30.02,29.86,3,0,8,0.00
2013-6-17,91,82,73,78,75,72,97,80,58,29.97,29.83,3,0,7,0.00
2013-6-18,92,83,74,77,74,71,96,76,52,29.97,29.79,6,1,17,0.00
2013-6-19,85,78,73,79,75,72,97,91,77,30.02,29.92,5,1,9,0.79
2013-6-20,92,80,74,77,75,71,98,85,50,30.07,29.96,6,1,8,0.01
2013-6-22,95,89,78,76,73,70,84,61,45,30.03,29.90,8,3,16,0.00
2013-6-23,92,79,72,78,75,71,98,87,55,30.02,29.94,5,1,13,1.26
2013-6-24,91,82,74,78,75,71,97,82,57,30.07,29.96,6,1,13,0.98
2013-6-25,93,83,74,78,75,69,98,78,48,30.07,29.91,4,1,8,0.00
2013-6-26,95,85,73,78,75,72,97,73,48,30.00,29.86,3,1,9,0.00
2013-6-27,96,84,74,79,76,73,98,78,51,30.01,29.83,4,1,10,0.00
2013-6-28,95,86,78,79,77,73,96,77,51,29.93,29.71,3,1,10,0.00
2013-6-29,97,84,77,80,77,75,96,83,50,29.79,29.58,3,0,17,0.13
2013-6-30,93,82,74,76,69,61,98,70,35,29.80,29.67,7,2,14,0.13